Meteo pe oră la Dzhuryn

Astăzi, 27 Februarie, Sâmbătă

Timp Temperatura Precipitaţii Vânt Presiune Umiditate
00:00 +5°C° 0.2 mm 4 m/s 735 mmHg 91%
01:00 +5°C° 0.2 mm 4 m/s 735 mmHg 91%
02:00 +5°C° 0.2 mm 5 m/s 736 mmHg 92%
03:00 +3°C° 0.2 mm 5 m/s 736 mmHg 91%
04:00 +2°C° 0.2 mm 5 m/s 736 mmHg 91%
05:00 +1°C° 0.2 mm 6 m/s 736 mmHg 90%
06:00 +1°C° 0 mm 6 m/s 736 mmHg 89%
07:00 +1°C° 0 mm 5 m/s 736 mmHg 88%
08:00 +1°C° 0 mm 5 m/s 736 mmHg 86%
09:00 +1°C° 0 mm 6 m/s 736 mmHg 83%
10:00 +1°C° 0 mm 6 m/s 736 mmHg 80%
11:00 0°C° 0 mm 7 m/s 736 mmHg 76%
12:00 +2°C° 0 mm 7 m/s 737 mmHg 76%
13:00 +2°C° 0 mm 7 m/s 737 mmHg 76%
14:00 +2°C° 0 mm 7 m/s 737 mmHg 76%
15:00 +2°C° 0 mm 7 m/s 737 mmHg 78%
16:00 +2°C° 0 mm 7 m/s 737 mmHg 81%
17:00 0°C° 0 mm 7 m/s 737 mmHg 83%
18:00 0°C° 0 mm 7 m/s 737 mmHg 82%
19:00 0°C° 0 mm 7 m/s 738 mmHg 81%
20:00 0°C° 0 mm 7 m/s 738 mmHg 80%
21:00 -1°C° 0 mm 7 m/s 738 mmHg 82%
22:00 -1°C° 0 mm 7 m/s 739 mmHg 83%
23:00 -1°C° 0 mm 7 m/s 739 mmHg 85%

Mâine, 28 Februarie, Duminică

Timp Temperatura Precipitaţii Vânt Presiune Umiditate
00:00 -1°C° 0 mm 7 m/s 739 mmHg 85%
01:00 -1°C° 0 mm 6 m/s 739 mmHg 85%
02:00 -1°C° 0 mm 6 m/s 739 mmHg 85%
03:00 -2°C° 0 mm 6 m/s 739 mmHg 86%
04:00 -2°C° 0 mm 7 m/s 739 mmHg 87%
05:00 -3°C° 0 mm 7 m/s 739 mmHg 88%
06:00 -3°C° 0 mm 7 m/s 740 mmHg 87%
07:00 -3°C° 0 mm 7 m/s 740 mmHg 85%
08:00 -3°C° 0 mm 7 m/s 740 mmHg 84%
09:00 -3°C° 0 mm 7 m/s 740 mmHg 82%
10:00 -2°C° 0 mm 7 m/s 740 mmHg 79%
11:00 -2°C° 0 mm 7 m/s 740 mmHg 77%
12:00 -1°C° 0 mm 7 m/s 740 mmHg 73%
13:00 0°C° 0 mm 7 m/s 740 mmHg 69%
14:00 +2°C° 0 mm 7 m/s 740 mmHg 64%
15:00 +2°C° 0 mm 7 m/s 740 mmHg 65%
16:00 +2°C° 0 mm 7 m/s 739 mmHg 67%
17:00 +2°C° 0 mm 6 m/s 739 mmHg 68%
18:00 +1°C° 0 mm 6 m/s 739 mmHg 71%
19:00 +1°C° 0 mm 6 m/s 739 mmHg 74%
20:00 +1°C° 0 mm 6 m/s 739 mmHg 78%
21:00 -1°C° 0.1 mm 6 m/s 739 mmHg 81%
22:00 -1°C° 0.1 mm 6 m/s 739 mmHg 85%
23:00 -1°C° 0.1 mm 7 m/s 738 mmHg 89%

Poimâine, 1 Martie, Luni

Timp Temperatura Precipitaţii Vânt Presiune Umiditate
00:00 -1°C° 0.8 mm 6 m/s 738 mmHg 91%
01:00 -1°C° 0.8 mm 6 m/s 739 mmHg 94%
02:00 -1°C° 0.8 mm 5 m/s 739 mmHg 96%
03:00 0°C° 0.3 mm 5 m/s 739 mmHg 96%
04:00 0°C° 0.3 mm 5 m/s 739 mmHg 96%
05:00 0°C° 0.3 mm 5 m/s 739 mmHg 95%
06:00 0°C° 0 mm 4 m/s 740 mmHg 94%
07:00 0°C° 0 mm 4 m/s 740 mmHg 92%
08:00 -1°C° 0 mm 4 m/s 741 mmHg 90%
09:00 +1°C° 0 mm 3 m/s 741 mmHg 85%
10:00 +2°C° 0 mm 3 m/s 742 mmHg 79%
11:00 +2°C° 0 mm 3 m/s 742 mmHg 74%
12:00 +1°C° 0 mm 4 m/s 742 mmHg 74%
13:00 +1°C° 0 mm 4 m/s 742 mmHg 74%
14:00 +1°C° 0 mm 4 m/s 743 mmHg 74%
15:00 +1°C° 0 mm 4 m/s 743 mmHg 75%
16:00 +1°C° 0 mm 4 m/s 743 mmHg 75%
17:00 +1°C° 0 mm 4 m/s 742 mmHg 76%
18:00 +1°C° 0 mm 4 m/s 743 mmHg 78%
19:00 +2°C° 0 mm 3 m/s 743 mmHg 80%
20:00 +2°C° 0 mm 3 m/s 744 mmHg 82%
21:00 +1°C° 0 mm 3 m/s 744 mmHg 85%
22:00 0°C° 0 mm 4 m/s 743 mmHg 87%
23:00 -1°C° 0 mm 4 m/s 743 mmHg 90%

2 Martie, Marţi

Timp Temperatura Precipitaţii Vânt Presiune Umiditate
00:00 -1°C° 0 mm 4 m/s 743 mmHg 90%
01:00 -1°C° 0 mm 4 m/s 744 mmHg 89%
02:00 0°C° 0 mm 4 m/s 744 mmHg 89%
03:00 0°C° 0 mm 4 m/s 743 mmHg 89%
04:00 0°C° 0 mm 4 m/s 743 mmHg 89%
05:00 0°C° 0 mm 4 m/s 743 mmHg 89%
06:00 0°C° 0 mm 4 m/s 743 mmHg 90%
07:00 0°C° 0 mm 5 m/s 743 mmHg 90%
08:00 -1°C° 0 mm 5 m/s 742 mmHg 90%
09:00 +1°C° 0 mm 5 m/s 742 mmHg 84%
10:00 +3°C° 0 mm 6 m/s 742 mmHg 78%
11:00 +4°C° 0 mm 6 m/s 742 mmHg 72%
12:00 +5°C° 0 mm 6 m/s 742 mmHg 67%
13:00 +6°C° 0 mm 7 m/s 742 mmHg 63%
14:00 +8°C° 0 mm 7 m/s 741 mmHg 59%
15:00 +8°C° 0 mm 7 m/s 741 mmHg 60%
16:00 +8°C° 0 mm 7 m/s 741 mmHg 61%
17:00 +8°C° 0 mm 6 m/s 741 mmHg 62%
18:00 +7°C° 0 mm 6 m/s 741 mmHg 66%
19:00 +5°C° 0 mm 6 m/s 741 mmHg 71%
20:00 +4°C° 0 mm 6 m/s 741 mmHg 75%
21:00 +3°C° 0 mm 5 m/s 741 mmHg 78%
22:00 +3°C° 0 mm 5 m/s 742 mmHg 80%
23:00 +2°C° 0 mm 5 m/s 742 mmHg 83%

3 Martie, Miercuri

Timp Temperatura Precipitaţii Vânt Presiune Umiditate
00:00 +3°C° 0 mm 4 m/s 742 mmHg 85%
01:00 +1°C° 0 mm 4 m/s 742 mmHg 87%
02:00 +1°C° 0 mm 4 m/s 742 mmHg 89%
03:00 +1°C° 0 mm 3 m/s 742 mmHg 90%
04:00 +1°C° 0 mm 3 m/s 742 mmHg 91%
05:00 0°C° 0 mm 3 m/s 741 mmHg 91%
06:00 0°C° 0 mm 3 m/s 742 mmHg 92%
07:00 0°C° 0 mm 3 m/s 742 mmHg 92%
08:00 +1°C° 0 mm 2 m/s 742 mmHg 92%
09:00 +2°C° 0 mm 3 m/s 742 mmHg 85%
10:00 +4°C° 0 mm 3 m/s 742 mmHg 79%
11:00 +5°C° 0 mm 3 m/s 742 mmHg 73%
12:00 +7°C° 0 mm 3 m/s 742 mmHg 68%
13:00 +8°C° 0 mm 3 m/s 741 mmHg 64%
14:00 +9°C° 0 mm 3 m/s 741 mmHg 59%
15:00 +9°C° 0 mm 3 m/s 741 mmHg 60%
16:00 +9°C° 0 mm 2 m/s 740 mmHg 61%
17:00 +9°C° 0 mm 2 m/s 740 mmHg 62%
18:00 +8°C° 0 mm 1 m/s 740 mmHg 67%
19:00 +7°C° 0 mm 1 m/s 740 mmHg 71%
20:00 +6°C° 0 mm 1 m/s 740 mmHg 75%
21:00 +6°C° 0 mm 1 m/s 740 mmHg 77%
22:00 +4°C° 0 mm 0 m/s 740 mmHg 79%
23:00 +4°C° 0 mm 0 m/s 740 mmHg 81%

4 Martie, Joi

Timp Temperatura Precipitaţii Vânt Presiune Umiditate
00:00 +4°C° 0 mm 1 m/s 740 mmHg 82%
01:00 +4°C° 0 mm 1 m/s 739 mmHg 83%
02:00 +4°C° 0 mm 1 m/s 739 mmHg 84%
03:00 +3°C° 0 mm 1 m/s 738 mmHg 85%
04:00 +3°C° 0 mm 1 m/s 738 mmHg 86%
05:00 +3°C° 0 mm 1 m/s 737 mmHg 86%
06:00 +3°C° 0 mm 1 m/s 737 mmHg 86%
07:00 +3°C° 0 mm 1 m/s 737 mmHg 86%
08:00 +3°C° 0 mm 1 m/s 736 mmHg 86%
09:00 +5°C° 0 mm 1 m/s 736 mmHg 79%
10:00 +6°C° 0 mm 1 m/s 736 mmHg 73%
11:00 +8°C° 0 mm 1 m/s 735 mmHg 66%
12:00 +8°C° 0 mm 2 m/s 735 mmHg 62%
13:00 +9°C° 0 mm 2 m/s 734 mmHg 57%
14:00 +10°C° 0 mm 2 m/s 733 mmHg 53%
15:00 +10°C° 0 mm 2 m/s 733 mmHg 55%
16:00 +10°C° 0 mm 2 m/s 732 mmHg 57%
17:00 +10°C° 0 mm 2 m/s 732 mmHg 59%
18:00 +9°C° 0 mm 2 m/s 732 mmHg 63%
19:00 +7°C° 0 mm 2 m/s 731 mmHg 67%
20:00 +5°C° 0 mm 3 m/s 731 mmHg 72%
21:00 +4°C° 0 mm 3 m/s 731 mmHg 74%
22:00 +4°C° 0 mm 3 m/s 730 mmHg 76%
23:00 +3°C° 0 mm 3 m/s 730 mmHg 79%
Arată mai mult

Formular de consimțământ

Meteoprog și furnizorii noștri de servicii pot stoca și accesa date personale, precum cookies, identificatori de dispozitiv sau alte tehnologii similare pe dispozitivul dumneavoastră și procesa astfel de date pentru a personaliza conținutul și reclamele, dar și pentru a oferi caracteristici de social media și pentru a analiza traficul.

  • Stocarea și/sau accesarea informațiilor pe dispozitivul dumneavoastră

    Cookies, identificatori de dispozitiv sau alte informații pot fi stocate sau accesate pe dispozitiv în scopurile indicate mai sus.

  • Reclame și conținut personalizat, evaluarea reclamelor și a conținutului, informații despre audiențe și dezvoltarea produselor

    Reclamele și conținutul pot fi personalizate pe baza unui profil. Pot fi adăugate date suplimentare pentru a personaliza mai bine reclamele și conținutul. Performanța reclamelor și conținutului poate fi măsurată. Pot fi obținute informații despre utilizatorii care au văzut reclamele și conținutul. Aceste date pot fi utilizate pentru a dezvolta sau îmbunătăți experiența utilizatorilor, sistemele și software-ul.

Dând clic pe ‘Sunt de acord’, permiteți utilizarea cookie-urilor menționate, a identificatorilor de dispozitiv, balizelor web sau altor tehnologii similare. Setările pot fi modificate din browser-ul dispozitivului dumneavoastră.

În anumite scopuri, interesele legitime pot prima asupra consimțământului. Puteți citi mai multe informații în acest sens în Politica privind Confidențialitatea Datelor și Cookie.